This is the latest recevied weather packets stored in our database for station/object WB4E-13. If no packets are shown the sender has not sent any weather packets the latest 10 day(s).
| Time | Temp. | Humidity | Pressure | Rain* | Wind** | Luminosity | Snow |
|---|---|---|---|---|---|---|---|
| 1777404760 | 24.44° C | 72% | 1014.1 hPa | 0 mm | - | - | - |
| 1777404417 | 24.44° C | 72% | 1014.2 hPa | 0 mm | - | - | - |
| 1777404160 | 24.44° C | 71% | 1013.9 hPa | 0 mm | - | - | - |
| 1777403559 | 24.44° C | 70% | 1013.9 hPa | 0 mm | - | - | - |
| 1777402959 | 24.44° C | 72% | 1014.2 hPa | 0 mm | - | - | - |
| 1777402359 | 23.89° C | 72% | 1014.3 hPa | 0 mm | - | - | - |
| 1777401759 | 23.89° C | 71% | 1014.4 hPa | 0 mm | - | - | - |
| 1777401158 | 23.33° C | 73% | 1014.6 hPa | 0 mm | - | - | - |
| 1777400559 | 22.78° C | 74% | 1014.7 hPa | 0 mm | - | - | - |
| 1777399958 | 23.89° C | 70% | 1014.6 hPa | 0 mm | - | - | - |
| 1777399358 | 23.33° C | 69% | 1014.6 hPa | 0 mm | - | - | - |
| 1777398758 | 23.33° C | 71% | 1014.6 hPa | 0 mm | - | - | - |
| 1777398158 | 23.89° C | 70% | 1014.5 hPa | 0 mm | - | - | - |
| 1777397557 | 23.33° C | 75% | 1014.6 hPa | 0 mm | - | - | - |
| 1777396962 | 22.78° C | 73% | 1014.6 hPa | 0 mm | - | - | - |
| 1777396362 | 22.22° C | 75% | 1014.7 hPa | 0 mm | - | - | - |
| 1777395161 | 22.22° C | 75% | 1015 hPa | 0 mm | - | - | - |
| 1777394562 | 21.67° C | 76% | 1015.1 hPa | 0 mm | - | - | - |
| 1777393961 | 21.11° C | 80% | 1015.2 hPa | 0 mm | - | - | - |
| 1777393361 | 20.56° C | 80% | 1015.3 hPa | 0 mm | - | - | - |
| 1777392761 | 20° C | 83% | 1015.2 hPa | 0 mm | - | - | - |
| 1777390959 | 18.89° C | 90% | 1015.3 hPa | 0 mm | - | - | - |
| 1777371158 | 15.56° C | 92% | 1015.7 hPa | 3.56 mm | - | - | - |
| 1777370560 | 16.11° C | 92% | 1016.3 hPa | 3.3 mm | - | - | - |
| 1777366426 | 18.89° C | 73% | 1015.6 hPa | 0 mm | - | - | - |
* Rain latest hour (hover to see other rain measurements)
** Current wind speed in m/s (hover to see current wind gust speed)